Time,TemperatureF,DewpointF,PressureIn,WindDirection,WindDirectionDegrees,WindSpeedMPH,WindSpeedGustMPH,Humidity,HourlyPrecipIn,Conditions,Clouds,dailyrainin,SoftwareType,DateUTC
2014-02-01 00:02:00,19.4,19.4,30.04,NNW,340,2.7,2.7,100,0.00,,OVC031,0.00,VWS V14.01,2014-02-01 06:02:00,
2014-02-01 00:07:00,19.4,19.4,30.04,NNE,13,0.0,4.0,100,0.00,,OVC025,0.00,VWS V14.01,2014-02-01 06:07:00,
2014-02-01 00:12:00,19.4,19.4,30.04,North,4,0.0,4.0,100,0.00,,OVC025,0.00,VWS V14.01,2014-02-01 06:12:00,
2014-02-01 00:14:00,19.4,19.4,30.04,NE,42,3.6,6.3,100,0.00,,OVC025,0.00,VWS V14.01,2014-02-01 06:14:00,
2014-02-01 00:19:00,19.4,19.4,30.04,NNE,28,0.0,7.2,100,0.00,,OVC025,0.00,VWS V14.01,2014-02-01 06:19:00,
2014-02-01 00:24:00,19.4,19.4,30.04,NE,49,4.0,6.3,100,0.00,,,0.00,VWS V14.01,2014-02-01 06:24:00,
2014-02-01 00:29:00,19.6,19.6,30.04,NE,36,2.2,6.3,100,0.00,,,0.00,VWS V14.01,2014-02-01 06:29:00,
2014-02-01 00:34:00,19.6,19.6,30.04,NNE,21,4.0,8.1,100,0.00,,,0.00,VWS V14.01,2014-02-01 06:34:00,
2014-02-01 00:40:00,19.6,19.6,30.01,ENE,58,2.7,6.7,100,0.00,,,0.00,VWS V14.01,2014-02-01 06:40:00,
2014-02-01 00:45:00,19.8,19.8,30.01,NE,52,4.0,5.4,100,0.00,,,0.00,VWS V14.01,2014-02-01 06:45:00,
2014-02-01 00:49:00,19.8,19.8,30.01,NE,46,3.6,6.3,100,0.00,,,0.00,VWS V14.01,2014-02-01 06:49:00,
2014-02-01 00:55:00,19.9,19.9,30.01,NE,54,0.0,8.3,100,0.00,,,0.00,VWS V14.01,2014-02-01 06:55:00,
2014-02-01 01:00:00,19.9,19.9,30.01,ENE,60,3.1,7.6,100,0.00,,,0.00,VWS V14.01,2014-02-01 07:00:00,
2014-02-01 01:05:00,19.9,19.9,30.01,NNE,25,3.1,4.9,100,0.00,,,0.00,VWS V14.01,2014-02-01 07:05:00,
2014-02-01 01:10:00,19.9,19.9,30.01,NE,56,0.0,6.3,100,0.00,,,0.00,VWS V14.01,2014-02-01 07:10:00,
2014-02-01 01:15:00,20.1,20.1,30.01,NNE,22,2.7,5.8,100,0.00,,,0.00,VWS V14.01,2014-02-01 07:15:00,
2014-02-01 01:19:00,20.1,20.1,30.01,NNE,22,0.0,7.6,100,0.00,,,0.00,VWS V14.01,2014-02-01 07:19:00,
2014-02-01 01:24:00,20.1,20.1,30.01,NNE,29,2.7,4.9,100,0.00,,,0.00,VWS V14.01,2014-02-01 07:24:00,
2014-02-01 01:29:00,20.3,20.3,30.01,North,4,0.0,5.8,100,0.00,,,0.00,VWS V14.01,2014-02-01 07:29:00,
2014-02-01 01:34:00,20.3,20.3,30.01,NNE,23,0.0,4.9,100,0.00,,,0.00,VWS V14.01,2014-02-01 07:34:00,
2014-02-01 01:39:00,20.3,20.3,30.01,North,353,3.1,6.3,100,0.00,,,0.00,VWS V14.01,2014-02-01 07:39:00,
2014-02-01 01:44:00,20.3,20.3,30.01,ENE,64,3.1,5.4,100,0.00,,,0.00,VWS V14.01,2014-02-01 07:44:00,
2014-02-01 01:49:00,20.3,20.3,30.01,NE,38,0.0,4.0,100,0.00,,,0.00,VWS V14.01,2014-02-01 07:49:00,
2014-02-01 01:54:00,20.5,20.5,30.01,NNE,25,3.1,5.8,100,0.00,,,0.00,VWS V14.01,2014-02-01 07:54:00,
2014-02-01 02:00:00,20.5,20.5,30.01,NE,44,2.7,4.0,100,0.00,,,0.00,VWS V14.01,2014-02-01 08:00:00,
2014-02-01 02:05:00,20.7,20.7,30.01,NE,46,0.0,3.6,100,0.00,,,0.00,VWS V14.01,2014-02-01 08:05:00,
2014-02-01 02:10:00,20.7,20.7,30.01,NE,48,0.0,4.9,100,0.00,,,0.00,VWS V14.01,2014-02-01 08:10:00,
2014-02-01 02:15:00,20.7,20.7,30.01,NNE,33,3.6,3.6,100,0.00,,,0.00,VWS V14.01,2014-02-01 08:15:00,
2014-02-01 02:20:00,20.8,20.8,30.01,North,9,0.0,5.8,100,0.00,,,0.00,VWS V14.01,2014-02-01 08:20:00,
2014-02-01 02:25:00,20.8,20.8,30.01,ENE,63,3.6,3.6,100,0.00,,,0.00,VWS V14.01,2014-02-01 08:25:00,
2014-02-01 02:30:00,20.8,20.8,30.01,NE,43,3.1,4.0,100,0.00,,,0.00,VWS V14.01,2014-02-01 08:30:00,
2014-02-01 02:34:00,20.8,20.8,30.01,NE,55,3.1,6.3,100,0.00,,,0.00,VWS V14.01,2014-02-01 08:34:00,
2014-02-01 02:39:00,20.8,20.8,29.98,NNE,33,0.0,3.6,100,0.00,,,0.00,VWS V14.01,2014-02-01 08:39:00,
2014-02-01 02:44:00,21.0,21.0,29.98,NNE,29,5.8,5.8,100,0.00,,,0.00,VWS V14.01,2014-02-01 08:44:00,
2014-02-01 02:49:00,21.0,21.0,29.98,NE,50,2.2,5.8,100,0.00,,,0.00,VWS V14.01,2014-02-01 08:49:00,
2014-02-01 02:55:00,21.0,21.0,29.98,NE,51,3.1,7.6,100,0.00,,,0.00,VWS V14.01,2014-02-01 08:55:00,
2014-02-01 03:00:00,21.0,21.0,29.98,NE,41,4.9,5.8,100,0.00,,,0.00,VWS V14.01,2014-02-01 09:00:00,
2014-02-01 03:05:00,21.2,21.2,29.98,NNE,30,2.2,5.8,100,0.00,,,0.00,VWS V14.01,2014-02-01 09:05:00,
2014-02-01 03:10:00,21.2,21.2,29.95,NE,49,2.7,4.9,100,0.00,,,0.00,VWS V14.01,2014-02-01 09:10:00,
2014-02-01 03:15:00,21.2,21.2,29.95,NE,37,2.2,6.3,100,0.00,,,0.00,VWS V14.01,2014-02-01 09:15:00,
2014-02-01 03:20:00,21.4,21.4,29.95,NE,39,3.6,5.8,100,0.00,,,0.00,VWS V14.01,2014-02-01 09:20:00,
2014-02-01 03:25:00,21.4,21.4,29.95,NNE,22,3.1,5.8,100,0.00,,,0.00,VWS V14.01,2014-02-01 09:25:00,
2014-02-01 03:30:00,21.6,21.6,29.95,NNE,33,4.0,6.3,100,0.00,,,0.00,VWS V14.01,2014-02-01 09:30:00,
2014-02-01 03:35:00,21.6,21.6,29.92,NNE,21,4.0,4.9,100,0.00,,,0.00,VWS V14.01,2014-02-01 09:35:00,
2014-02-01 03:40:00,21.7,21.7,29.92,North,5,3.1,3.1,100,0.00,,,0.00,VWS V14.01,2014-02-01 09:40:00,
2014-02-01 03:45:00,21.9,21.9,29.92,NE,45,4.9,4.9,100,0.00,,,0.00,VWS V14.01,2014-02-01 09:45:00,
2014-02-01 03:50:00,21.9,21.9,29.95,NE,36,3.1,3.6,100,0.00,,,0.00,VWS V14.01,2014-02-01 09:50:00,
2014-02-01 03:55:00,21.9,21.9,29.95,NE,45,2.7,4.0,100,0.00,,,0.00,VWS V14.01,2014-02-01 09:55:00,
2014-02-01 04:00:00,21.9,21.9,29.95,ENE,62,3.1,3.1,100,0.00,,,0.00,VWS V14.01,2014-02-01 10:00:00,
2014-02-01 04:05:00,21.9,21.9,29.98,NNE,17,0.0,0.0,100,0.00,,,0.00,VWS V14.01,2014-02-01 10:05:00,
2014-02-01 04:10:00,21.9,21.9,29.98,NNE,19,2.7,4.0,100,0.00,,,0.00,VWS V14.01,2014-02-01 10:10:00,
2014-02-01 04:15:00,21.9,21.9,29.98,NNE,28,3.1,4.0,100,0.00,,,0.00,VWS V14.01,2014-02-01 10:15:00,
2014-02-01 04:20:00,21.9,21.9,29.98,North,3,4.0,6.3,100,0.00,,,0.00,VWS V14.01,2014-02-01 10:20:00,
2014-02-01 04:25:00,21.9,21.9,29.98,NNE,33,2.2,3.6,100,0.00,,,0.00,VWS V14.01,2014-02-01 10:25:00,
2014-02-01 04:30:00,21.9,21.9,29.98,NNE,22,4.0,5.4,100,0.00,,,0.00,VWS V14.01,2014-02-01 10:30:00,
2014-02-01 04:36:00,21.9,21.9,29.98,NNW,343,3.6,5.8,100,0.00,,,0.00,VWS V14.01,2014-02-01 10:36:00,
2014-02-01 04:41:00,21.7,21.7,29.98,NE,37,5.8,6.3,100,0.00,,,0.00,VWS V14.01,2014-02-01 10:41:00,
2014-02-01 04:46:00,21.7,21.7,29.98,NNE,22,4.0,4.0,100,0.00,,,0.00,VWS V14.01,2014-02-01 10:46:00,
2014-02-01 04:51:00,21.7,21.7,29.95,NNE,19,4.9,4.9,100,0.00,,,0.00,VWS V14.01,2014-02-01 10:51:00,
2014-02-01 04:56:00,21.7,21.7,29.95,NE,46,4.0,8.7,100,0.00,,,0.00,VWS V14.01,2014-02-01 10:56:00,
2014-02-01 05:01:00,21.7,21.7,29.95,NNE,12,3.1,8.1,100,0.00,,,0.00,VWS V14.01,2014-02-01 11:01:00,
2014-02-01 05:06:00,21.7,21.7,29.95,North,7,5.8,5.8,100,0.00,,,0.00,VWS V14.01,2014-02-01 11:06:00,
2014-02-01 05:11:00,21.7,21.7,29.95,North,5,4.9,6.3,100,0.00,,,0.00,VWS V14.01,2014-02-01 11:11:00,
2014-02-01 05:16:00,21.9,21.9,29.95,North,357,3.6,5.4,100,0.00,,,0.00,VWS V14.01,2014-02-01 11:16:00,
2014-02-01 05:21:00,21.9,21.9,29.95,NE,44,8.7,8.7,100,0.00,,,0.00,VWS V14.01,2014-02-01 11:21:00,
2014-02-01 05:26:00,21.9,21.9,29.95,North,11,2.7,6.3,100,0.00,,,0.00,VWS V14.01,2014-02-01 11:26:00,
2014-02-01 05:31:00,21.9,21.9,29.95,NE,51,5.4,8.1,100,0.00,,,0.00,VWS V14.01,2014-02-01 11:31:00,
2014-02-01 05:36:00,21.9,21.9,29.95,North,353,4.9,5.8,100,0.00,,,0.00,VWS V14.01,2014-02-01 11:36:00,
2014-02-01 05:41:00,21.9,21.9,29.95,North,6,3.6,5.4,100,0.00,,,0.00,VWS V14.01,2014-02-01 11:41:00,
2014-02-01 05:46:00,21.9,21.9,29.95,North,8,2.7,5.4,100,0.00,,,0.00,VWS V14.01,2014-02-01 11:46:00,
2014-02-01 05:51:00,21.9,21.9,29.95,NE,51,3.1,5.8,100,0.00,,,0.00,VWS V14.01,2014-02-01 11:51:00,
2014-02-01 05:56:00,21.9,21.9,29.95,NNE,33,4.9,6.3,100,0.00,,,0.00,VWS V14.01,2014-02-01 11:56:00,
2014-02-01 06:01:00,21.9,21.9,29.95,North,7,6.3,6.3,100,0.00,,,0.00,VWS V14.01,2014-02-01 12:01:00,
2014-02-01 06:06:00,21.9,21.9,29.95,North,357,2.7,6.3,100,0.00,,,0.00,VWS V14.01,2014-02-01 12:06:00,
2014-02-01 06:11:00,22.1,22.1,29.95,NE,41,2.2,5.8,100,0.00,,,0.00,VWS V14.01,2014-02-01 12:11:00,
2014-02-01 06:16:00,22.1,22.1,29.95,NE,43,4.0,4.0,100,0.00,,,0.00,VWS V14.01,2014-02-01 12:16:00,
2014-02-01 06:22:00,22.1,22.1,29.95,NE,45,6.3,8.1,100,0.00,,,0.00,VWS V14.01,2014-02-01 12:22:00,
2014-02-01 06:27:00,22.3,22.3,29.95,NE,38,4.0,5.4,100,0.00,,,0.00,VWS V14.01,2014-02-01 12:27:00,
2014-02-01 06:32:00,22.3,22.3,29.95,NE,37,4.0,6.3,100,0.00,,,0.00,VWS V14.01,2014-02-01 12:32:00,
2014-02-01 06:37:00,22.3,22.3,29.95,NE,54,3.6,8.3,100,0.00,,,0.00,VWS V14.01,2014-02-01 12:37:00,
2014-02-01 06:42:00,22.5,22.5,29.95,NE,41,3.1,6.3,100,0.00,,,0.00,VWS V14.01,2014-02-01 12:42:00,
2014-02-01 06:47:00,22.5,22.5,29.95,NNE,32,2.7,5.4,100,0.00,,,0.00,VWS V14.01,2014-02-01 12:47:00,
2014-02-01 06:52:00,22.5,22.5,29.92,NE,51,4.9,5.8,100,0.00,,,0.00,VWS V14.01,2014-02-01 12:52:00,
2014-02-01 06:57:00,22.5,22.5,29.92,NE,56,4.0,6.3,100,0.00,,,0.00,VWS V14.01,2014-02-01 12:57:00,
2014-02-01 07:02:00,22.5,22.5,29.92,NE,52,5.4,6.3,100,0.00,,,0.00,VWS V14.01,2014-02-01 13:02:00,
2014-02-01 07:07:00,22.6,22.6,29.92,NNE,32,3.6,5.8,100,0.00,,,0.00,VWS V14.01,2014-02-01 13:07:00,
2014-02-01 07:12:00,22.6,22.6,29.92,ENE,75,3.6,5.8,100,0.00,,,0.00,VWS V14.01,2014-02-01 13:12:00,
2014-02-01 07:17:00,22.6,22.6,29.92,NNE,28,2.7,5.8,100,0.00,,,0.00,VWS V14.01,2014-02-01 13:17:00,
2014-02-01 07:22:00,22.6,22.6,29.92,North,357,4.0,6.3,100,0.00,,,0.00,VWS V14.01,2014-02-01 13:22:00,
2014-02-01 07:27:00,22.8,22.8,29.92,NNE,14,4.9,6.3,100,0.00,,,0.00,VWS V14.01,2014-02-01 13:27:00,
2014-02-01 07:32:00,22.8,22.8,29.92,North,11,3.1,5.4,100,0.00,,,0.00,VWS V14.01,2014-02-01 13:32:00,
2014-02-01 07:37:00,22.8,22.8,29.92,NE,35,5.8,5.8,100,0.00,,,0.00,VWS V14.01,2014-02-01 13:37:00,
2014-02-01 07:42:00,22.8,22.8,29.92,NNE,31,3.6,5.8,100,0.00,,,0.00,VWS V14.01,2014-02-01 13:42:00,
2014-02-01 07:47:00,23.0,23.0,29.92,North,4,4.0,6.3,100,0.00,,,0.00,VWS V14.01,2014-02-01 13:47:00,
2014-02-01 07:52:00,23.2,23.2,29.92,North,10,4.9,7.6,100,0.00,,,0.00,VWS V14.01,2014-02-01 13:52:00,
2014-02-01 07:57:00,23.2,23.2,29.92,ENE,61,5.4,7.6,100,0.00,,,0.00,VWS V14.01,2014-02-01 13:57:00,
2014-02-01 08:02:00,23.2,23.2,29.92,ENE,65,9.2,10.1,100,0.00,,,0.00,VWS V14.01,2014-02-01 14:02:00,
2014-02-01 08:08:00,23.4,23.4,29.89,NNE,15,3.6,7.6,100,0.00,,,0.00,VWS V14.01,2014-02-01 14:08:00,
2014-02-01 08:13:00,23.5,23.5,29.89,NE,34,2.7,5.8,100,0.00,,,0.00,VWS V14.01,2014-02-01 14:13:00,
2014-02-01 08:18:00,23.5,23.5,29.89,NNE,28,2.7,6.7,100,0.00,,,0.00,VWS V14.01,2014-02-01 14:18:00,
2014-02-01 08:23:00,23.7,23.7,29.89,North,9,3.6,5.4,100,0.00,,,0.00,VWS V14.01,2014-02-01 14:23:00,
2014-02-01 08:28:00,23.7,23.7,29.89,North,353,5.8,6.3,100,0.00,,,0.00,VWS V14.01,2014-02-01 14:28:00,
2014-02-01 08:33:00,23.7,23.7,29.89,NE,37,3.6,5.4,100,0.00,,,0.00,VWS V14.01,2014-02-01 14:33:00,
2014-02-01 08:38:00,23.7,23.7,29.92,North,9,2.7,5.4,100,0.00,,,0.00,VWS V14.01,2014-02-01 14:38:00,
2014-02-01 08:43:00,23.9,23.9,29.92,North,0,4.9,4.9,100,0.00,,,0.00,VWS V14.01,2014-02-01 14:43:00,
2014-02-01 08:48:00,24.1,24.1,29.92,NE,38,4.9,8.3,100,0.00,,,0.00,VWS V14.01,2014-02-01 14:48:00,
2014-02-01 08:53:00,24.3,24.3,29.92,NNE,21,4.0,8.7,100,0.00,,,0.00,VWS V14.01,2014-02-01 14:53:00,
2014-02-01 08:54:00,24.3,24.3,29.92,NE,41,3.1,8.7,100,0.00,,,0.00,VWS V14.01,2014-02-01 14:54:00,
2014-02-01 08:59:00,24.4,24.4,29.92,NNE,28,3.1,9.2,100,0.00,,,0.00,VWS V14.01,2014-02-01 14:59:00,
2014-02-01 09:04:00,24.4,24.4,29.92,NNE,32,0.0,7.6,100,0.00,,,0.00,VWS V14.01,2014-02-01 15:04:00,
2014-02-01 09:09:00,24.6,24.6,29.89,NNE,31,2.2,6.3,100,0.00,,,0.00,VWS V14.01,2014-02-01 15:09:00,
2014-02-01 09:14:00,24.8,24.8,29.89,ENE,77,4.0,6.3,100,0.00,,,0.00,VWS V14.01,2014-02-01 15:14:00,
2014-02-01 09:19:00,24.8,24.8,29.89,North,0,3.1,6.3,100,0.00,,,0.00,VWS V14.01,2014-02-01 15:19:00,
2014-02-01 09:24:00,25.0,25.0,29.92,NNE,18,0.0,5.4,100,0.00,,,0.00,VWS V14.01,2014-02-01 15:24:00,
2014-02-01 09:29:00,25.0,25.0,29.92,WNW,302,3.6,7.6,100,0.00,,,0.00,VWS V14.01,2014-02-01 15:29:00,
2014-02-01 09:34:00,25.0,25.0,29.92,North,350,3.1,6.3,100,0.00,,,0.00,VWS V14.01,2014-02-01 15:34:00,
2014-02-01 09:39:00,25.0,25.0,29.95,NE,49,5.4,5.4,100,0.00,,,0.00,VWS V14.01,2014-02-01 15:39:00,
2014-02-01 09:44:00,25.0,25.0,29.95,NE,42,3.6,6.7,100,0.00,,,0.00,VWS V14.01,2014-02-01 15:44:00,
2014-02-01 09:50:00,25.2,25.2,29.92,North,357,3.6,6.3,100,0.00,,,0.00,VWS V14.01,2014-02-01 15:50:00,
2014-02-01 09:55:00,25.2,25.2,29.92,North,4,5.8,6.7,100,0.00,,,0.00,VWS V14.01,2014-02-01 15:55:00,
2014-02-01 10:00:00,25.3,25.3,29.92,NE,44,5.4,6.3,100,0.00,,,0.00,VWS V14.01,2014-02-01 16:00:00,
2014-02-01 10:05:00,25.3,25.3,29.92,North,357,4.9,5.8,100,0.00,,,0.00,VWS V14.01,2014-02-01 16:05:00,
2014-02-01 10:10:00,25.3,25.3,29.92,NE,43,5.4,5.8,100,0.00,,,0.00,VWS V14.01,2014-02-01 16:10:00,
2014-02-01 10:15:00,25.5,25.5,29.92,ENE,64,4.0,5.8,100,0.00,,,0.00,VWS V14.01,2014-02-01 16:15:00,
2014-02-01 10:20:00,25.5,25.5,29.92,NNE,16,3.6,6.3,100,0.00,,,0.00,VWS V14.01,2014-02-01 16:20:00,
2014-02-01 10:25:00,25.5,25.5,29.92,NNW,344,6.3,7.2,100,0.00,,,0.00,VWS V14.01,2014-02-01 16:25:00,
2014-02-01 10:30:00,25.5,25.5,29.92,NNW,340,4.0,8.3,100,0.00,,,0.00,VWS V14.01,2014-02-01 16:30:00,
2014-02-01 10:35:00,25.5,25.5,29.92,North,0,3.1,3.1,100,0.00,,,0.00,VWS V14.01,2014-02-01 16:35:00,
2014-02-01 10:40:00,25.5,25.5,29.92,NNE,30,0.0,4.0,100,0.00,,,0.00,VWS V14.01,2014-02-01 16:40:00,
2014-02-01 10:45:00,25.5,25.5,29.92,NE,44,3.1,7.6,100,0.00,,,0.00,VWS V14.01,2014-02-01 16:45:00,
2014-02-01 10:50:00,25.7,25.7,29.92,North,353,2.7,5.8,100,0.00,,,0.00,VWS V14.01,2014-02-01 16:50:00,
2014-02-01 10:55:00,25.7,25.7,29.92,NW,326,8.1,8.1,100,0.00,,,0.00,VWS V14.01,2014-02-01 16:55:00,
2014-02-01 11:00:00,25.9,25.9,29.92,NE,37,5.8,6.3,100,0.00,,,0.00,VWS V14.01,2014-02-01 17:00:00,
2014-02-01 11:05:00,25.9,25.9,29.92,North,353,6.3,6.7,100,0.00,,,0.00,VWS V14.01,2014-02-01 17:05:00,
2014-02-01 11:10:00,26.1,26.1,29.92,North,357,5.4,6.3,100,0.00,,,0.00,VWS V14.01,2014-02-01 17:10:00,
2014-02-01 11:15:00,26.1,26.1,29.92,North,0,2.7,2.7,100,0.00,,,0.00,VWS V14.01,2014-02-01 17:15:00,
2014-02-01 11:20:00,26.2,26.2,29.92,NNW,336,3.1,4.9,100,0.00,,,0.00,VWS V14.01,2014-02-01 17:20:00,
2014-02-01 11:25:00,26.4,26.4,29.92,NNW,345,5.4,5.8,100,0.00,,,0.00,VWS V14.01,2014-02-01 17:25:00,
2014-02-01 11:31:00,26.4,26.4,29.92,NNE,15,0.0,0.0,100,0.00,,,0.00,VWS V14.01,2014-02-01 17:31:00,
2014-02-01 11:36:00,26.6,26.6,29.92,North,0,5.4,5.4,100,0.00,,,0.00,VWS V14.01,2014-02-01 17:36:00,
2014-02-01 11:41:00,26.6,26.6,29.92,NNW,346,6.3,6.3,100,0.00,,,0.00,VWS V14.01,2014-02-01 17:41:00,
2014-02-01 11:46:00,26.6,26.6,29.92,North,349,5.8,5.8,100,0.00,,,0.00,VWS V14.01,2014-02-01 17:46:00,
2014-02-01 11:51:00,26.8,26.8,29.92,North,357,3.6,6.3,100,0.00,,,0.00,VWS V14.01,2014-02-01 17:51:00,
2014-02-01 11:56:00,27.0,27.0,29.92,NE,48,5.8,8.3,100,0.00,,,0.00,VWS V14.01,2014-02-01 17:56:00,
2014-02-01 12:01:00,27.0,27.0,29.92,North,0,4.0,4.0,100,0.00,,,0.00,VWS V14.01,2014-02-01 18:01:00,
2014-02-01 12:06:00,27.1,27.1,29.92,NE,36,2.7,5.4,100,0.00,,RA,0.00,VWS V14.01,2014-02-01 18:06:00,
2014-02-01 12:11:00,27.3,27.3,29.92,NNW,335,4.0,4.0,100,0.00,,RA,0.00,VWS V14.01,2014-02-01 18:11:00,
2014-02-01 12:16:00,27.5,27.5,29.92,NNE,15,6.3,6.3,100,0.00,,RA,0.00,VWS V14.01,2014-02-01 18:16:00,
2014-02-01 12:21:00,27.5,27.5,29.92,NNW,345,3.6,6.3,100,0.00,,RA,0.00,VWS V14.01,2014-02-01 18:21:00,
2014-02-01 12:26:00,27.9,27.9,29.92,North,353,5.4,5.8,100,0.00,,RA,0.00,VWS V14.01,2014-02-01 18:26:00,
2014-02-01 12:31:00,28.0,28.0,29.92,North,357,4.0,7.6,100,0.00,,RA,0.00,VWS V14.01,2014-02-01 18:31:00,
2014-02-01 12:36:00,28.2,28.2,29.89,North,357,8.3,8.7,100,0.00,,RA,0.00,VWS V14.01,2014-02-01 18:36:00,
2014-02-01 12:41:00,28.4,28.4,29.89,North,353,4.5,8.7,100,0.00,,RA,0.00,VWS V14.01,2014-02-01 18:41:00,
2014-02-01 12:46:00,28.4,28.4,29.89,North,353,5.8,10.5,100,0.00,,-RA,0.00,VWS V14.01,2014-02-01 18:46:00,
2014-02-01 12:51:00,28.4,28.4,29.92,North,0,6.7,6.7,100,0.00,,-RA,0.00,VWS V14.01,2014-02-01 18:51:00,
2014-02-01 12:56:00,28.4,28.4,29.92,North,353,8.1,8.1,100,0.00,,-RA,0.00,VWS V14.01,2014-02-01 18:56:00,
2014-02-01 13:01:00,28.6,28.6,29.92,North,349,5.4,5.4,100,0.00,,-RA,0.00,VWS V14.01,2014-02-01 19:01:00,
2014-02-01 13:07:00,28.6,28.6,29.92,NNW,345,0.0,5.8,100,0.00,,OVC004,0.00,VWS V14.01,2014-02-01 19:07:00,
2014-02-01 13:12:00,28.6,28.6,29.92,North,353,5.4,5.4,100,0.00,,OVC004,0.00,VWS V14.01,2014-02-01 19:12:00,
2014-02-01 13:17:00,28.6,28.6,29.92,NNW,346,0.0,0.0,100,0.00,,OVC004,0.00,VWS V14.01,2014-02-01 19:17:00,
2014-02-01 13:22:00,28.6,28.6,29.92,NNW,345,0.0,3.1,100,0.00,,OVC004,0.00,VWS V14.01,2014-02-01 19:22:00,
2014-02-01 13:27:00,28.6,28.6,29.92,North,7,0.0,4.0,100,0.00,,RA,0.00,VWS V14.01,2014-02-01 19:27:00,
2014-02-01 13:32:00,28.6,28.6,29.92,North,357,4.9,4.9,100,0.00,,RA,0.00,VWS V14.01,2014-02-01 19:32:00,
2014-02-01 13:37:00,28.6,28.6,29.92,North,7,3.6,6.3,100,0.00,,RA,0.00,VWS V14.01,2014-02-01 19:37:00,
2014-02-01 13:42:00,28.2,28.2,29.92,WNW,303,4.0,4.9,100,0.00,,,0.00,VWS V14.01,2014-02-01 19:42:00,
2014-02-01 13:47:00,27.9,27.9,29.92,NNW,328,2.7,7.6,100,0.00,,,0.00,VWS V14.01,2014-02-01 19:47:00,
2014-02-01 13:52:00,27.5,27.5,29.92,NW,317,2.7,8.1,100,0.00,,,0.00,VWS V14.01,2014-02-01 19:52:00,
2014-02-01 13:57:00,27.5,27.5,29.92,NW,307,3.6,6.3,100,0.00,,,0.00,VWS V14.01,2014-02-01 19:57:00,
2014-02-01 14:02:00,27.3,27.3,29.92,NW,321,0.0,4.0,100,0.00,,OVC004,0.00,VWS V14.01,2014-02-01 20:02:00,
2014-02-01 14:07:00,27.5,27.5,29.92,North,0,3.1,4.9,100,0.00,,OVC004,0.00,VWS V14.01,2014-02-01 20:07:00,
2014-02-01 14:12:00,27.5,27.5,29.92,NNE,15,6.3,7.6,100,0.00,,OVC004,0.00,VWS V14.01,2014-02-01 20:12:00,
2014-02-01 14:17:00,27.5,27.5,29.92,North,353,5.8,5.8,100,0.00,,OVC004,0.00,VWS V14.01,2014-02-01 20:17:00,
2014-02-01 14:22:00,27.7,27.7,29.92,NW,315,0.0,4.9,100,0.00,,OVC004,0.00,VWS V14.01,2014-02-01 20:22:00,
2014-02-01 14:27:00,27.5,27.5,29.92,North,350,0.0,0.0,100,0.00,,OVC004,0.00,VWS V14.01,2014-02-01 20:27:00,
2014-02-01 14:32:00,27.5,27.5,29.92,NNW,332,2.7,4.9,100,0.00,,OVC004,0.00,VWS V14.01,2014-02-01 20:32:00,
2014-02-01 14:38:00,27.1,27.1,29.95,NNW,331,4.9,8.1,100,0.00,,OVC004,0.00,VWS V14.01,2014-02-01 20:38:00,
2014-02-01 14:43:00,26.8,26.8,29.95,NNE,16,7.6,7.6,100,0.00,,,0.00,VWS V14.01,2014-02-01 20:43:00,
2014-02-01 14:48:00,26.4,26.4,29.95,NNW,334,7.6,10.1,100,0.00,,,0.00,VWS V14.01,2014-02-01 20:48:00,
2014-02-01 14:53:00,26.1,26.1,29.95,NNW,329,5.8,8.7,100,0.00,,,0.00,VWS V14.01,2014-02-01 20:53:00,
2014-02-01 14:58:00,25.9,25.9,29.95,North,357,6.3,6.3,100,0.00,,,0.00,VWS V14.01,2014-02-01 20:58:00,
2014-02-01 15:03:00,26.1,26.1,29.95,NNW,329,5.4,6.3,100,0.00,,,0.00,VWS V14.01,2014-02-01 21:03:00,
2014-02-01 15:08:00,26.1,26.1,29.95,NNW,337,8.3,12.3,100,0.00,,,0.00,VWS V14.01,2014-02-01 21:08:00,
2014-02-01 15:13:00,25.9,25.9,29.95,North,353,4.0,7.6,100,0.00,,,0.00,VWS V14.01,2014-02-01 21:13:00,
2014-02-01 15:18:00,25.9,25.9,29.95,NNW,342,6.3,12.8,100,0.00,,,0.00,VWS V14.01,2014-02-01 21:18:00,
2014-02-01 15:23:00,25.9,25.9,29.95,North,350,7.6,8.3,100,0.00,,,0.00,VWS V14.01,2014-02-01 21:23:00,
2014-02-01 15:28:00,25.9,25.9,29.95,North,350,5.8,8.3,100,0.00,,,0.00,VWS V14.01,2014-02-01 21:28:00,
2014-02-01 15:33:00,25.9,25.9,29.95,North,3,3.6,10.1,100,0.00,,,0.00,VWS V14.01,2014-02-01 21:33:00,
2014-02-01 15:38:00,25.9,25.9,29.98,North,353,6.3,8.3,100,0.00,,,0.00,VWS V14.01,2014-02-01 21:38:00,
2014-02-01 15:43:00,25.9,25.9,29.98,North,353,5.4,8.3,100,0.00,,,0.00,VWS V14.01,2014-02-01 21:43:00,
2014-02-01 15:48:00,25.9,25.9,29.98,North,357,5.4,6.3,100,0.00,,,0.00,VWS V14.01,2014-02-01 21:48:00,
2014-02-01 15:53:00,25.9,25.9,29.98,North,353,6.3,8.3,100,0.00,,,0.00,VWS V14.01,2014-02-01 21:53:00,
2014-02-01 15:58:00,25.9,25.9,29.98,North,0,5.8,10.1,100,0.00,,,0.00,VWS V14.01,2014-02-01 21:58:00,
2014-02-01 16:03:00,25.7,25.7,29.98,North,357,4.9,9.6,100,0.00,,,0.00,VWS V14.01,2014-02-01 22:03:00,
2014-02-01 16:09:00,25.7,25.7,29.98,NW,320,6.3,8.1,100,0.00,,,0.00,VWS V14.01,2014-02-01 22:09:00,
2014-02-01 16:14:00,25.7,25.7,29.98,North,353,3.6,6.3,100,0.00,,,0.00,VWS V14.01,2014-02-01 22:14:00,
2014-02-01 16:19:00,25.7,25.7,29.98,North,353,5.4,11.0,100,0.00,,,0.00,VWS V14.01,2014-02-01 22:19:00,
2014-02-01 16:24:00,25.5,25.5,30.01,NNW,333,5.4,8.7,100,0.00,,,0.00,VWS V14.01,2014-02-01 22:24:00,
2014-02-01 16:29:00,25.3,25.3,30.01,NNW,327,4.0,8.3,100,0.00,,,0.00,VWS V14.01,2014-02-01 22:29:00,
2014-02-01 16:34:00,25.3,25.3,30.01,NW,325,5.8,7.6,100,0.00,,,0.00,VWS V14.01,2014-02-01 22:34:00,
2014-02-01 16:39:00,25.2,25.2,30.01,North,357,3.6,6.3,100,0.00,,,0.00,VWS V14.01,2014-02-01 22:39:00,
2014-02-01 16:44:00,25.2,25.2,30.01,North,357,3.6,6.3,100,0.00,,,0.00,VWS V14.01,2014-02-01 22:44:00,
2014-02-01 16:49:00,25.2,25.2,30.01,NNW,343,3.1,6.3,100,0.00,,,0.00,VWS V14.01,2014-02-01 22:49:00,
2014-02-01 16:54:00,25.2,25.2,30.01,NNW,348,0.0,5.8,100,0.00,,,0.00,VWS V14.01,2014-02-01 22:54:00,
2014-02-01 16:59:00,25.0,25.0,30.01,North,7,3.1,6.7,100,0.00,,,0.00,VWS V14.01,2014-02-01 22:59:00,
2014-02-01 17:04:00,24.8,24.8,30.01,NW,325,5.8,5.8,100,0.00,,,0.00,VWS V14.01,2014-02-01 23:04:00,
2014-02-01 17:09:00,24.8,24.8,30.01,NNW,333,0.0,9.2,100,0.00,,,0.00,VWS V14.01,2014-02-01 23:09:00,
2014-02-01 17:14:00,24.6,24.6,30.01,North,357,2.2,7.6,100,0.00,,,0.00,VWS V14.01,2014-02-01 23:14:00,
2014-02-01 17:19:00,24.4,24.4,30.01,NW,316,8.1,8.1,100,0.00,,,0.00,VWS V14.01,2014-02-01 23:19:00,
2014-02-01 17:24:00,24.3,24.3,30.04,NNW,327,5.8,8.3,100,0.00,,,0.00,VWS V14.01,2014-02-01 23:24:00,
2014-02-01 17:29:00,24.3,24.3,30.04,North,353,5.8,8.7,100,0.00,,,0.00,VWS V14.01,2014-02-01 23:29:00,
2014-02-01 17:34:00,24.1,24.1,30.04,NNW,342,6.3,8.1,100,0.00,,,0.00,VWS V14.01,2014-02-01 23:34:00,
2014-02-01 17:39:00,24.1,24.1,30.04,North,0,3.6,8.1,100,0.00,,,0.00,VWS V14.01,2014-02-01 23:39:00,
2014-02-01 17:45:00,24.1,24.1,30.04,North,353,5.4,8.3,100,0.00,,,0.00,VWS V14.01,2014-02-01 23:45:00,
2014-02-01 17:50:00,24.1,24.1,30.04,North,353,4.9,9.2,100,0.00,,,0.00,VWS V14.01,2014-02-01 23:50:00,
2014-02-01 17:55:00,23.9,23.9,30.04,NNW,344,5.8,5.8,100,0.00,,,0.00,VWS V14.01,2014-02-01 23:55:00,
2014-02-01 18:00:00,23.9,23.9,30.04,North,0,6.3,8.1,100,0.00,,,0.00,VWS V14.01,2014-02-02 00:00:00,
2014-02-01 18:05:00,23.7,23.7,30.04,NW,325,11.0,12.3,100,0.00,,,0.00,VWS V14.01,2014-02-02 00:05:00,
2014-02-01 18:10:00,23.7,23.7,30.04,NNW,341,7.6,11.9,100,0.00,,,0.00,VWS V14.01,2014-02-02 00:10:00,
2014-02-01 18:15:00,23.5,23.5,30.04,NNW,334,6.3,9.2,100,0.00,,,0.00,VWS V14.01,2014-02-02 00:15:00,
2014-02-01 18:20:00,23.5,23.5,30.04,NW,325,8.7,14.5,100,0.00,,,0.00,VWS V14.01,2014-02-02 00:20:00,
2014-02-01 18:25:00,23.5,23.5,30.04,North,353,7.6,7.6,100,0.00,,,0.00,VWS V14.01,2014-02-02 00:25:00,
2014-02-01 18:30:00,23.5,23.5,30.04,NNW,340,4.0,6.3,100,0.00,,,0.00,VWS V14.01,2014-02-02 00:30:00,
2014-02-01 18:35:00,23.5,23.5,30.07,NNW,343,4.9,5.4,100,0.00,,,0.00,VWS V14.01,2014-02-02 00:35:00,
2014-02-01 18:40:00,23.5,23.5,30.07,North,353,3.6,6.3,100,0.00,,,0.00,VWS V14.01,2014-02-02 00:40:00,
2014-02-01 18:45:00,23.5,23.5,30.07,North,353,0.0,3.6,100,0.00,,,0.00,VWS V14.01,2014-02-02 00:45:00,
2014-02-01 18:50:00,23.5,23.5,30.07,North,353,5.8,8.7,100,0.00,,,0.00,VWS V14.01,2014-02-02 00:50:00,
2014-02-01 18:55:00,23.5,23.5,30.07,North,357,3.6,3.6,100,0.00,,,0.00,VWS V14.01,2014-02-02 00:55:00,
2014-02-01 19:00:00,23.5,23.5,30.07,NNW,340,6.3,8.3,100,0.00,,,0.00,VWS V14.01,2014-02-02 01:00:00,
2014-02-01 19:05:00,23.5,23.5,30.07,NNW,343,8.1,8.7,100,0.00,,,0.00,VWS V14.01,2014-02-02 01:05:00,
2014-02-01 19:11:00,23.4,23.4,30.07,NNW,346,3.6,8.1,100,0.00,,,0.00,VWS V14.01,2014-02-02 01:11:00,
2014-02-01 19:16:00,23.4,23.4,30.07,North,3,5.4,5.4,100,0.00,,,0.00,VWS V14.01,2014-02-02 01:16:00,
2014-02-01 19:21:00,23.4,23.4,30.10,North,353,2.2,3.1,100,0.00,,,0.00,VWS V14.01,2014-02-02 01:21:00,
2014-02-01 19:26:00,23.4,23.4,30.10,North,0,3.6,5.4,100,0.00,,,0.00,VWS V14.01,2014-02-02 01:26:00,
2014-02-01 19:31:00,23.4,23.4,30.10,NNW,344,4.9,6.3,100,0.00,,,0.00,VWS V14.01,2014-02-02 01:31:00,
2014-02-01 19:36:00,23.4,23.4,30.10,NNW,337,3.6,3.6,100,0.00,,,0.00,VWS V14.01,2014-02-02 01:36:00,
2014-02-01 19:41:00,23.2,23.2,30.10,North,353,4.0,7.6,100,0.00,,,0.00,VWS V14.01,2014-02-02 01:41:00,
2014-02-01 19:46:00,23.2,23.2,30.10,NW,326,3.6,4.9,100,0.00,,,0.00,VWS V14.01,2014-02-02 01:46:00,
2014-02-01 19:51:00,23.2,23.2,30.10,NNW,344,3.6,4.0,100,0.00,,,0.00,VWS V14.01,2014-02-02 01:51:00,
2014-02-01 19:56:00,23.2,23.2,30.10,NW,323,3.6,5.4,100,0.00,,,0.00,VWS V14.01,2014-02-02 01:56:00,
2014-02-01 20:01:00,23.2,23.2,30.10,NNW,340,4.0,4.0,100,0.00,,,0.00,VWS V14.01,2014-02-02 02:01:00,
2014-02-01 20:06:00,23.0,23.0,30.10,NNW,346,3.6,4.9,100,0.00,,,0.00,VWS V14.01,2014-02-02 02:06:00,
2014-02-01 20:11:00,23.0,23.0,30.10,NNW,345,2.7,2.7,100,0.00,,,0.00,VWS V14.01,2014-02-02 02:11:00,
2014-02-01 20:16:00,23.0,23.0,30.10,NNW,344,6.3,6.3,100,0.00,,,0.00,VWS V14.01,2014-02-02 02:16:00,
2014-02-01 20:21:00,23.0,23.0,30.13,North,357,5.4,5.8,100,0.00,,,0.00,VWS V14.01,2014-02-02 02:21:00,
2014-02-01 20:26:00,23.0,23.0,30.13,NNW,330,3.6,6.7,100,0.00,,,0.00,VWS V14.01,2014-02-02 02:26:00,
2014-02-01 20:31:00,23.0,23.0,30.13,NNW,339,2.7,5.8,100,0.00,,,0.00,VWS V14.01,2014-02-02 02:31:00,
2014-02-01 20:36:00,23.0,23.0,30.13,NW,326,2.7,4.0,100,0.00,,,0.00,VWS V14.01,2014-02-02 02:36:00,
2014-02-01 20:42:00,23.0,23.0,30.13,North,0,2.7,5.4,100,0.00,,,0.00,VWS V14.01,2014-02-02 02:42:00,
2014-02-01 20:47:00,23.0,23.0,30.13,NNW,337,3.1,6.3,100,0.00,,,0.00,VWS V14.01,2014-02-02 02:47:00,
2014-02-01 20:52:00,23.0,23.0,30.13,North,353,8.1,8.1,100,0.00,,,0.00,VWS V14.01,2014-02-02 02:52:00,
2014-02-01 20:57:00,23.0,23.0,30.13,North,353,4.0,8.1,100,0.00,,,0.00,VWS V14.01,2014-02-02 02:57:00,
2014-02-01 21:02:00,23.0,23.0,30.13,NNW,334,5.8,8.7,100,0.00,,,0.00,VWS V14.01,2014-02-02 03:02:00,
2014-02-01 21:07:00,23.0,23.0,30.13,North,350,3.1,5.8,100,0.00,,,0.00,VWS V14.01,2014-02-02 03:07:00,
2014-02-01 21:12:00,23.0,23.0,30.13,NW,314,8.1,8.1,100,0.00,,,0.00,VWS V14.01,2014-02-02 03:12:00,
2014-02-01 21:17:00,23.0,23.0,30.13,North,350,4.9,6.3,100,0.00,,,0.00,VWS V14.01,2014-02-02 03:17:00,
2014-02-01 21:22:00,23.0,23.0,30.13,North,357,3.6,6.3,100,0.00,,,0.00,VWS V14.01,2014-02-02 03:22:00,
2014-02-01 21:27:00,23.0,23.0,30.13,NNW,342,8.1,8.1,100,0.00,,,0.00,VWS V14.01,2014-02-02 03:27:00,
2014-02-01 21:32:00,23.0,23.0,30.13,North,0,8.1,8.1,100,0.00,,,0.00,VWS V14.01,2014-02-02 03:32:00,
2014-02-01 21:37:00,22.8,22.8,30.13,NNW,337,5.8,5.8,100,0.00,,,0.00,VWS V14.01,2014-02-02 03:37:00,
2014-02-01 21:42:00,22.8,22.8,30.13,North,353,2.7,6.3,100,0.00,,,0.00,VWS V14.01,2014-02-02 03:42:00,
2014-02-01 21:47:00,22.8,22.8,30.13,NNW,335,5.4,8.7,100,0.00,,,0.00,VWS V14.01,2014-02-02 03:47:00,
2014-02-01 21:52:00,22.8,22.8,30.13,North,1,6.7,7.2,100,0.00,,,0.00,VWS V14.01,2014-02-02 03:52:00,
2014-02-01 21:57:00,22.8,22.8,30.13,North,350,2.7,4.9,100,0.00,,,0.00,VWS V14.01,2014-02-02 03:57:00,
2014-02-01 22:02:00,22.8,22.8,30.13,NW,306,5.4,8.7,100,0.00,,,0.00,VWS V14.01,2014-02-02 04:02:00,
2014-02-01 22:08:00,22.6,22.6,30.13,NNW,338,8.1,11.0,100,0.00,,,0.00,VWS V14.01,2014-02-02 04:08:00,
2014-02-01 22:13:00,22.6,22.6,30.13,North,2,3.1,13.2,100,0.00,,,0.00,VWS V14.01,2014-02-02 04:13:00,
2014-02-01 22:18:00,22.5,22.5,30.13,NW,320,8.3,10.5,100,0.00,,,0.00,VWS V14.01,2014-02-02 04:18:00,
2014-02-01 22:23:00,22.5,22.5,30.13,North,0,5.8,12.3,100,0.00,,,0.00,VWS V14.01,2014-02-02 04:23:00,
2014-02-01 22:28:00,22.5,21.1,30.13,North,0,7.6,8.3,94,0.00,,,0.00,VWS V14.01,2014-02-02 04:28:00,
2014-02-01 22:33:00,22.5,22.5,30.13,NNW,346,2.7,7.6,100,0.00,,,0.00,VWS V14.01,2014-02-02 04:33:00,
2014-02-01 22:38:00,22.3,20.9,30.13,North,357,5.4,10.5,94,0.00,,,0.00,VWS V14.01,2014-02-02 04:38:00,
2014-02-01 22:43:00,22.3,20.9,30.13,NNW,329,6.3,10.5,94,0.00,,,0.00,VWS V14.01,2014-02-02 04:43:00,
2014-02-01 22:48:00,22.3,20.9,30.13,NNW,346,8.1,10.1,94,0.00,,,0.00,VWS V14.01,2014-02-02 04:48:00,
2014-02-01 22:53:00,22.3,20.9,30.16,NW,325,7.6,8.3,94,0.00,,,0.00,VWS V14.01,2014-02-02 04:53:00,
2014-02-01 22:58:00,22.1,20.8,30.16,NW,313,2.2,10.5,94,0.00,,,0.00,VWS V14.01,2014-02-02 04:58:00,
2014-02-01 23:01:00,22.1,20.8,30.16,North,6,7.6,7.6,94,0.00,,,0.00,VWS V14.01,2014-02-02 05:01:00,
2014-02-01 23:06:00,21.9,20.6,30.13,NNW,331,3.6,4.0,94,0.00,,,0.00,VWS V14.01,2014-02-02 05:06:00,
2014-02-01 23:11:00,21.9,20.6,30.13,NNW,328,6.3,10.5,94,0.00,,,0.00,VWS V14.01,2014-02-02 05:11:00,
2014-02-01 23:16:00,21.9,20.6,30.13,NNW,336,2.7,7.6,94,0.00,,,0.00,VWS V14.01,2014-02-02 05:16:00,
2014-02-01 23:21:00,21.7,20.4,30.16,NNW,341,6.3,8.7,94,0.00,,,0.00,VWS V14.01,2014-02-02 05:21:00,
2014-02-01 23:26:00,21.7,20.4,30.16,NW,326,3.6,11.0,94,0.00,,,0.00,VWS V14.01,2014-02-02 05:26:00,
2014-02-01 23:31:00,21.6,20.2,30.16,WNW,303,3.1,7.6,94,0.00,,,0.00,VWS V14.01,2014-02-02 05:31:00,
2014-02-01 23:36:00,21.4,20.0,30.16,North,353,8.7,10.1,94,0.00,,,0.00,VWS V14.01,2014-02-02 05:36:00,
2014-02-01 23:41:00,21.2,19.9,30.16,NNW,335,5.4,8.1,94,0.00,,,0.00,VWS V14.01,2014-02-02 05:41:00,
2014-02-01 23:46:00,21.0,19.7,30.16,NW,306,3.1,7.6,94,0.00,,,0.00,VWS V14.01,2014-02-02 05:46:00,
2014-02-01 23:51:00,20.8,19.5,30.16,NNW,338,0.0,3.6,94,0.00,,,0.00,VWS V14.01,2014-02-02 05:51:00,
2014-02-01 23:56:00,20.8,19.5,30.16,NNW,336,4.0,7.6,94,0.00,,,0.00,VWS V14.01,2014-02-02 05:56:00,